When you browse on this site, cookies collect data to enhance your experience and personalize the content and advertising you see.
Visit our Privacy Policy to learn more. By continuing to use the site, you agree to this use of cookies and data.
  • en France
  • Liste des pays
  • À 7 jours
  • Température de l'eau
  • Carte satellitaire
  • Carte météo
  • Widgets météo
  • user-avatar
    Se connecter

    Météo par heure à Rawson

    Ce jour, 19 Janvier, Samedi

    Heure Température Précipitation Vent Pression Humidité
    00:00 +28°C° 0 mm 9 m/s 758 mmHg 21%
    01:00 +28°C° 0 mm 8 m/s 758 mmHg 21%
    02:00 +28°C° 0 mm 8 m/s 757 mmHg 21%
    03:00 +28°C° 0 mm 8 m/s 757 mmHg 18%
    04:00 +28°C° 0 mm 8 m/s 757 mmHg 15%
    05:00 +28°C° 0 mm 8 m/s 756 mmHg 13%
    06:00 +29°C° 0 mm 9 m/s 756 mmHg 12%
    07:00 +32°C° 0 mm 10 m/s 756 mmHg 11%
    08:00 +33°C° 0 mm 10 m/s 756 mmHg 10%
    09:00 +36°C° 0 mm 10 m/s 756 mmHg 9%
    10:00 +37°C° 0 mm 10 m/s 756 mmHg 9%
    11:00 +38°C° 0 mm 9 m/s 756 mmHg 8%
    12:00 +39°C° 0 mm 10 m/s 756 mmHg 8%
    13:00 +40°C° 0 mm 10 m/s 755 mmHg 8%
    14:00 +40°C° 0 mm 10 m/s 755 mmHg 7%
    15:00 +40°C° 0 mm 10 m/s 754 mmHg 8%
    16:00 +40°C° 0 mm 10 m/s 753 mmHg 8%
    17:00 +40°C° 0 mm 10 m/s 753 mmHg 8%
    18:00 +39°C° 0 mm 10 m/s 752 mmHg 9%
    19:00 +38°C° 0 mm 11 m/s 752 mmHg 10%
    20:00 +37°C° 0 mm 11 m/s 752 mmHg 11%
    21:00 +36°C° 0 mm 11 m/s 752 mmHg 12%
    22:00 +36°C° 0 mm 12 m/s 752 mmHg 13%
    23:00 +34°C° 0 mm 12 m/s 752 mmHg 15%

    Demain, 20 Janvier, Dimanche

    Heure Température Précipitation Vent Pression Humidité
    00:00 +33°C° 0 mm 11 m/s 751 mmHg 16%
    01:00 +33°C° 0 mm 11 m/s 751 mmHg 17%
    02:00 +33°C° 0 mm 10 m/s 751 mmHg 18%
    03:00 +31°C° 0 mm 8 m/s 751 mmHg 19%
    04:00 +29°C° 0 mm 6 m/s 751 mmHg 21%
    05:00 +28°C° 0 mm 5 m/s 751 mmHg 22%
    06:00 +28°C° 0 mm 4 m/s 751 mmHg 22%
    07:00 +29°C° 0 mm 3 m/s 752 mmHg 22%
    08:00 +29°C° 0 mm 2 m/s 752 mmHg 22%
    09:00 +30°C° 0 mm 3 m/s 751 mmHg 22%
    10:00 +32°C° 0 mm 4 m/s 751 mmHg 21%
    11:00 +33°C° 0 mm 5 m/s 751 mmHg 20%
    12:00 +34°C° 0 mm 5 m/s 750 mmHg 20%
    13:00 +35°C° 0 mm 6 m/s 749 mmHg 20%
    14:00 +36°C° 0 mm 6 m/s 748 mmHg 20%
    15:00 +36°C° 0 mm 7 m/s 746 mmHg 22%
    16:00 +36°C° 0 mm 7 m/s 745 mmHg 24%
    17:00 +35°C° 0 mm 7 m/s 744 mmHg 25%
    18:00 +35°C° 0 mm 9 m/s 745 mmHg 23%
    19:00 +34°C° 0 mm 10 m/s 746 mmHg 21%
    20:00 +34°C° 0 mm 12 m/s 746 mmHg 19%
    21:00 +31°C° 0 mm 13 m/s 747 mmHg 20%
    22:00 +28°C° 0 mm 14 m/s 749 mmHg 22%
    23:00 +26°C° 0 mm 15 m/s 750 mmHg 24%

    Après-demain, 21 Janvier, Lundi

    Heure Température Précipitation Vent Pression Humidité
    00:00 +23°C° 0 mm 15 m/s 751 mmHg 23%
    01:00 +22°C° 0 mm 15 m/s 751 mmHg 22%
    02:00 +19°C° 0 mm 14 m/s 752 mmHg 22%
    03:00 +18°C° 0 mm 13 m/s 753 mmHg 23%
    04:00 +17°C° 0 mm 13 m/s 753 mmHg 24%
    05:00 +15°C° 0 mm 12 m/s 754 mmHg 25%
    06:00 +17°C° 0 mm 11 m/s 755 mmHg 24%
    07:00 +17°C° 0 mm 10 m/s 755 mmHg 24%
    08:00 +17°C° 0 mm 9 m/s 756 mmHg 24%
    09:00 +20°C° 0 mm 8 m/s 756 mmHg 22%
    10:00 +21°C° 0 mm 7 m/s 756 mmHg 19%
    11:00 +22°C° 0 mm 6 m/s 756 mmHg 16%
    12:00 +24°C° 0 mm 6 m/s 755 mmHg 14%
    13:00 +26°C° 0 mm 7 m/s 754 mmHg 13%
    14:00 +28°C° 0 mm 7 m/s 754 mmHg 12%
    15:00 +29°C° 0 mm 6 m/s 753 mmHg 11%
    16:00 +30°C° 0 mm 5 m/s 752 mmHg 11%
    17:00 +32°C° 0 mm 5 m/s 751 mmHg 11%
    18:00 +29°C° 0 mm 6 m/s 751 mmHg 13%
    19:00 +27°C° 0 mm 7 m/s 750 mmHg 16%
    20:00 +24°C° 0 mm 8 m/s 750 mmHg 19%
    21:00 +24°C° 0 mm 7 m/s 750 mmHg 22%
    22:00 +23°C° 0 mm 6 m/s 751 mmHg 25%
    23:00 +22°C° 0 mm 6 m/s 751 mmHg 28%

    22 Janvier, Mardi

    Heure Température Précipitation Vent Pression Humidité
    00:00 +22°C° 0 mm 5 m/s 751 mmHg 30%
    01:00 +21°C° 0 mm 3 m/s 751 mmHg 32%
    02:00 +21°C° 0 mm 2 m/s 751 mmHg 33%
    03:00 +21°C° 0 mm 4 m/s 751 mmHg 32%
    04:00 +21°C° 0 mm 6 m/s 752 mmHg 31%
    05:00 +21°C° 0 mm 7 m/s 752 mmHg 30%
    06:00 +19°C° 0 mm 9 m/s 753 mmHg 31%
    07:00 +19°C° 0 mm 10 m/s 753 mmHg 31%
    08:00 +19°C° 0 mm 11 m/s 754 mmHg 31%
    09:00 +19°C° 0 mm 11 m/s 754 mmHg 28%
    10:00 +21°C° 0 mm 11 m/s 754 mmHg 25%
    11:00 +21°C° 0 mm 11 m/s 755 mmHg 22%
    12:00 +22°C° 0 mm 11 m/s 755 mmHg 20%
    13:00 +23°C° 0 mm 11 m/s 755 mmHg 19%
    14:00 +24°C° 0 mm 11 m/s 755 mmHg 17%
    15:00 +24°C° 0 mm 10 m/s 754 mmHg 17%
    16:00 +26°C° 0 mm 10 m/s 754 mmHg 17%
    17:00 +26°C° 0 mm 9 m/s 754 mmHg 16%
    18:00 +24°C° 0 mm 8 m/s 754 mmHg 18%
    19:00 +24°C° 0 mm 7 m/s 755 mmHg 20%
    20:00 +23°C° 0 mm 6 m/s 755 mmHg 21%
    21:00 +22°C° 0 mm 5 m/s 756 mmHg 25%
    22:00 +21°C° 0 mm 5 m/s 756 mmHg 28%
    23:00 +20°C° 0 mm 4 m/s 757 mmHg 31%

    23 Janvier, Mercredi

    Heure Température Précipitation Vent Pression Humidité
    00:00 +19°C° 0 mm 5 m/s 758 mmHg 30%
    01:00 +19°C° 0 mm 6 m/s 758 mmHg 29%
    02:00 +17°C° 0 mm 7 m/s 758 mmHg 28%
    03:00 +16°C° 0 mm 7 m/s 758 mmHg 29%
    04:00 +16°C° 0 mm 7 m/s 759 mmHg 31%
    05:00 +15°C° 0 mm 6 m/s 759 mmHg 32%
    06:00 +16°C° 0 mm 6 m/s 759 mmHg 32%
    07:00 +17°C° 0 mm 6 m/s 760 mmHg 31%
    08:00 +17°C° 0 mm 6 m/s 760 mmHg 30%
    09:00 +20°C° 0 mm 6 m/s 760 mmHg 27%
    10:00 +21°C° 0 mm 5 m/s 759 mmHg 24%
    11:00 +23°C° 0 mm 4 m/s 759 mmHg 22%
    12:00 +25°C° 0 mm 5 m/s 758 mmHg 20%
    13:00 +26°C° 0 mm 5 m/s 758 mmHg 18%
    14:00 +28°C° 0 mm 5 m/s 757 mmHg 16%
    15:00 +29°C° 0 mm 6 m/s 756 mmHg 16%
    16:00 +30°C° 0 mm 7 m/s 755 mmHg 16%
    17:00 +30°C° 0 mm 7 m/s 754 mmHg 15%
    18:00 +28°C° 0 mm 9 m/s 754 mmHg 22%
    19:00 +26°C° 0 mm 10 m/s 754 mmHg 29%
    20:00 +23°C° 0 mm 11 m/s 753 mmHg 35%
    21:00 +23°C° 0 mm 11 m/s 753 mmHg 41%
    22:00 +23°C° 0 mm 11 m/s 753 mmHg 47%
    23:00 +22°C° 0 mm 11 m/s 752 mmHg 53%

    24 Janvier, Jeudi

    Heure Température Précipitation Vent Pression Humidité
    00:00 +23°C° 0 mm 11 m/s 752 mmHg 51%
    01:00 +23°C° 0 mm 11 m/s 751 mmHg 50%
    02:00 +23°C° 0 mm 11 m/s 750 mmHg 48%
    03:00 +24°C° 0 mm 11 m/s 750 mmHg 40%
    04:00 +26°C° 0 mm 10 m/s 749 mmHg 31%
    05:00 +27°C° 0 mm 10 m/s 749 mmHg 23%
    06:00 +29°C° 0 mm 10 m/s 749 mmHg 19%
    07:00 +31°C° 0 mm 10 m/s 748 mmHg 16%
    08:00 +33°C° 0 mm 10 m/s 748 mmHg 12%
    09:00 +34°C° 0 mm 10 m/s 748 mmHg 11%
    10:00 +36°C° 0 mm 10 m/s 747 mmHg 10%
    11:00 +37°C° 0 mm 10 m/s 747 mmHg 10%
    12:00 +37°C° 0 mm 10 m/s 746 mmHg 8%
    13:00 +38°C° 0 mm 9 m/s 746 mmHg 7%
    14:00 +38°C° 0 mm 9 m/s 745 mmHg 6%
    15:00 +38°C° 0 mm 10 m/s 745 mmHg 7%
    16:00 +38°C° 0 mm 10 m/s 745 mmHg 8%
    17:00 +38°C° 0 mm 11 m/s 744 mmHg 9%
    18:00 +36°C° 0 mm 10 m/s 745 mmHg 13%
    19:00 +33°C° 0 mm 9 m/s 746 mmHg 16%
    20:00 +32°C° 0 mm 9 m/s 747 mmHg 20%
    21:00 +29°C° 0 mm 8 m/s 748 mmHg 20%
    22:00 +27°C° 0 mm 8 m/s 749 mmHg 21%
    23:00 +24°C° 0 mm 8 m/s 750 mmHg 22%
    Voir plus